Location: Mason-Dixon Star Party
(40.0361°N, 76.9958°W)
Time: 21:38:37
(UTC-04:00)

Daily predictions for brighter satellites

Satellite Brightness Start Highest point End
(mag) Time Altitude Azimuth Time Altitude Azimuth Time Altitude Azimuth
Cosmos 1697 Rocket 2.9 20:15:30 10° SSW 20:21:09 80° WNW 20:26:50 10° NNE
SJ-6B 3.8 20:19:51 10° S 20:23:39 51° W 20:27:34 10° NNW
ATLAS CENTAUR R/B 1.9 20:23:12 10° NW 20:25:33 61° SW 20:30:58 10° SE
Cosmos 1400 Rocket 2.7 20:23:32 10° N 20:27:26 73° E 20:31:21 10° SSE
OTV 4 2.0 20:26:59 10° WSW 20:29:23 24° SSW 20:31:47 10° SE
Cosmos 2297 Rocket 3.5 20:24:28 10° NW 20:29:45 41° WSW 20:34:59 10° S
Nadezhda 4 Rocket 4.0 20:23:53 10° N 20:30:10 75° E 20:36:27 10° SSE
ALOS 3.2 20:27:24 10° S 20:31:56 51° W 20:36:30 10° NNW
DELTA 2 R/B (1) 3.9 20:27:00 10° W 20:32:32 62° SSW 20:37:59 10° ESE
FENGYUN 3A 4.4 20:28:32 10° S 20:33:47 58° W 20:39:05 10° NNW
Cosmos 1892 2.6 20:30:17 10° N 20:34:05 79° E 20:37:52 10° S
Cosmos 1634 Rocket 4.3 20:30:25 10° SSE 20:36:22 47° E 20:42:23 10° NNE
Intercosmos 25 Rocket 4.4 20:35:46 10° SE 20:38:07 19° E 20:40:42 10° NE
Cosmos 2263 Rocket 3.8 20:34:49 10° N 20:38:44 19° NE 20:42:39 10° E
Cosmos 1092 Rocket 4.1 20:32:33 10° N 20:38:51 63° E 20:45:07 10° SSE
Meteor 2-3 Rocket 4.0 20:33:40 10° NNW 20:39:22 78° W 20:45:06 10° S
Cosmos 1315 Rocket 3.0 20:35:46 10° N 20:39:46 52° ENE 20:43:42 10° SSE
H-2A R/B 3.4 20:36:57 10° S 20:40:48 59° W 20:44:39 10° NNW
Cosmos 2322 Rocket 2.9 20:37:04 10° SSE 20:41:54 31° ESE 20:46:47 10° NE
USA 186 1.3 20:40:12 10° SSE 20:42:47 62° ENE 20:45:35 10° N
Cosmos 1707 Rocket 3.5 20:42:21 10° S 20:46:46 71° E 20:51:11 10° NNE
YAOGAN 6 4.3 20:45:47 13° ESE 20:47:32 18° ENE 20:50:01 10° NNE
Abrixas rocket 2.5 20:44:27 10° WSW 20:47:44 70° NNW 20:51:00 10° NE
Spot 2 Rocket 3.8 20:42:57 10° S 20:48:02 73° WSW 20:53:08 10° NNW
ORS 1 (USA 231) 4.4 20:48:16 10° WSW 20:51:21 75° S 20:53:47 15° E
Cosmos 2360 Rocket 3.7 20:52:40 14° ESE 20:53:23 14° E 20:56:13 10° ENE
Cosmos 1980 Rocket 2.5 20:47:59 10° SSW 20:53:39 73° WNW 20:59:22 10° NNE
Cosmos 1733 Rocket 4.2 20:51:06 10° NNE 20:54:54 27° ENE 20:57:19 17° ESE
Helios 1B rocket 2.3 20:54:58 10° NNE 20:59:04 67° ESE 21:03:08 10° S
CZ-2D R/B 4.1 20:55:22 10° S 20:59:10 53° W 21:03:00 10° NNW
Resurs 1-3 4.4 20:56:04 10° S 21:00:20 52° W 21:04:39 10° NNW
Lacrosse 4 Rocket 2.4 20:56:57 10° N 21:00:52 33° NE 21:03:18 19° ESE
Meteor 1-29 3.0 20:57:35 10° NNE 21:01:01 54° E 21:04:24 10° S
Cosmos 1869 Rocket 4.1 21:00:44 10° NNW 21:05:10 63° W 21:09:35 10° S
Cosmos 1825 2.5 21:02:37 10° N 21:06:17 44° E 21:08:24 22° SE
Cosmos 1862 4.2 21:03:07 10° NNE 21:06:44 31° ENE 21:08:23 23° ESE
Envisat 3.0 21:02:49 10° SSE 21:07:52 74° ENE 21:12:57 10° N
SL-16 R/B 2.3 21:03:14 10° S 21:08:41 52° ESE 21:14:11 10° NNE
Cosmos 1302 Rocket 4.4 21:03:36 10° SSW 21:08:45 67° WNW 21:13:57 10° NNE
Cosmos 1627 Rocket 4.4 21:05:56 10° N 21:12:10 74° E 21:18:17 10° SSE
Cosmos 1939 Rocket 2.9 21:09:41 17° SSE 21:12:42 66° ENE 21:16:43 10° N
Cosmos 2242 Rocket 3.6 21:08:37 10° S 21:13:06 65° E 21:17:34 10° NNE
Milstar 3 3.7 21:06:47 10° WSW 21:13:42 33° S 21:17:22 20° SE
SJ-11-01 4.2 21:10:59 14° SSE 21:14:56 75° ENE 21:19:37 10° N
SPOT 5 4.2 21:15:36 19° E 21:17:07 22° ENE 21:20:45 10° NNE
Cosmos 2195 Rocket 4.4 21:11:30 10° N 21:17:38 84° E 21:23:46 10° S
CZ-4B DEB 2.6 21:15:52 22° S 21:17:40 83° WSW 21:20:44 10° NNW
Cosmos 2279 Rocket 4.0 21:12:42 10° S 21:18:49 60° E 21:24:57 10° NNE
ATLAS 5 CENTAUR R/B 3.6 21:15:48 10° NNW 21:20:53 28° NE 21:24:21 18° E
USA 234 3.3 21:20:01 21° SE 21:24:43 83° SW 21:31:19 10° NW
OAO 3 Rocket 3.6 21:22:50 10° WSW 21:27:30 45° S 21:29:18 31° SE
Resurs 01 Rocket 4.0 21:25:38 10° SSW 21:29:07 22° W 21:32:38 10° NW
Helios 1A 4.0 21:27:00 10° S 21:31:04 46° W 21:35:11 10° NNW
Atlas Centaur 2 3.7 21:25:40 10° SW 21:31:55 30° SSE 21:34:14 26° SE
ARGOS 4.0 21:30:20 26° E 21:32:04 32° ENE 21:36:46 10° N
Cosmos 1428 Rocket 4.4 21:31:17 10° N 21:37:24 72° E 21:41:11 24° SSE
Cosmos 2180 Rocket 4.5 21:32:21 10° S 21:38:42 71° E 21:45:02 10° NNE
FALCON 9 R/B 2.6 21:37:30 10° SW 21:38:04 14° SW 21:38:04 14° SW
ERS-1 Rocket 2.9 21:42:11 32° SSE 21:44:32 79° ENE 21:49:34 10° N
Cosmos 1408 3.5 21:44:45 10° NNW 21:48:18 45° W 21:50:06 24° SSW
ERBS 2.7 21:49:13 10° NW 21:52:35 53° SW 21:52:42 52° SW
Sich 1 Rocket 3.8 21:49:18 10° N 21:53:39 50° E 21:53:57 49° E
SeaSat 1 2.6 22:00:11 49° ESE 22:01:10 60° ENE 22:06:03 10° NNW
Cosmos 1992 Rocket 4.2 21:57:25 10° SSW 22:02:38 69° WNW 22:07:52 10° NNE
USA 229 DEB 3.9 22:04:47 41° SE 22:06:07 46° ESE 22:12:38 10° NE
USA 229 3.9 22:05:03 41° SE 22:06:13 45° ESE 22:12:44 10° NE
H-2A R/B 3.8 22:07:13 20° NE 22:07:13 20° NE 22:09:42 10° NNE
MetOp-A 4.1 22:08:21 47° S 22:09:56 87° WSW 22:15:20 10° NNW
USA 245 4.2 22:08:35 49° SE 22:10:11 73° ENE 22:15:31 10° N
Cosmos 1908 Rocket 3.4 22:06:43 10° N 22:11:03 79° E 22:11:03 79° E
Meteor 1-25 Rocket 4.4 22:12:46 10° N 22:18:12 49° ENE 22:18:23 49° E
YAOGAN 6 4.3 22:20:14 26° WSW 22:20:53 27° W 22:24:03 10° NW
COSMOS 2428 4.0 22:23:05 26° ENE 22:23:05 26° ENE 22:26:02 10° NE
Cosmos 1867 3.7 22:16:50 10° NNW 22:22:13 57° NE 22:22:40 56° ENE
Cosmos 2263 Rocket 2.4 22:17:38 10° NNW 22:23:09 65° WSW 22:24:22 50° SSW
H-2A R/B 2.1 22:24:03 56° ENE 22:24:03 56° ENE 22:28:47 10° N
Cosmos 1782 Rocket 4.0 22:20:38 10° N 22:24:09 52° NNE 22:24:09 52° NNE
Okean 2 Rocket 4.0 22:20:52 10° N 22:24:13 39° NE 22:24:13 39° NE
Cosmos 2322 Rocket 3.7 22:20:42 10° SW 22:25:49 36° WNW 22:30:59 10° N
Terra 3.0 22:26:53 30° NE 22:26:53 30° NE 22:30:16 10° N
Meteor 2-10 Rocket 4.2 22:30:48 26° SSW 22:34:02 58° WNW 22:39:47 10° N
Cosmos 2360 Rocket 2.3 22:34:16 36° SW 22:36:38 74° WNW 22:42:20 10° NNE
SL-08 RB Rocket 3.9 22:37:52 71° NW 22:37:52 71° NW 22:42:06 10° NNW
Lacrosse 4 Rocket 3.3 22:35:58 10° NW 22:39:25 23° WSW 22:39:39 23° WSW
Meteor 1-20 Rocket 4.2 22:34:52 10° N 22:40:13 68° ENE 22:40:13 68° ENE
Cosmos 2322 3.7 22:40:41 54° SW 22:42:02 79° WNW 22:47:47 10° NNE
Cosmos 968 Rocket 3.6 22:41:19 10° NNW 22:46:23 66° W 22:46:23 66° W
ASTEX 1 4.3 22:50:52 39° NE 22:50:52 39° NE 22:54:22 10° N
Cosmos 2266 Rocket 4.4 22:46:11 10° NNW 22:52:18 58° W 22:53:45 47° SW
SL-16 R/B 4.4 22:48:37 10° WSW 22:53:06 24° NW 22:57:37 10° N
Okean 1-7 4.1 22:55:18 44° NNW 22:55:18 44° NNW 22:58:30 10° N
SPOT 5 3.8 22:54:50 39° WSW 22:54:57 39° W 22:59:26 10° NNW
CZ-4C R/B 4.2 22:51:31 10° NNW 22:57:26 28° NE 22:59:45 24° ENE
Cosmos 2333 Rocket 4.0 23:04:54 19° NE 23:04:54 19° NE 23:06:45 10° NE
ATLAS 5 CENTAUR R/B 2.6 22:59:58 10° NW 23:05:54 62° WSW 23:05:54 62° WSW
Cosmos 2237 Rocket 4.3 23:14:49 16° NE 23:14:49 16° NE 23:16:02 10° NE
SPOT 1/Viking Rocket 4.4 23:11:28 42° W 23:11:28 42° W 23:16:11 10° NNW
ARGOS 4.4 23:11:51 32° WSW 23:12:14 32° W 23:17:01 10° NNW
Cosmos 1244 Rocket 4.4 23:06:18 10° N 23:12:15 82° NNW 23:12:15 82° NNW
Cosmos 2278 Rocket 3.5 23:10:05 10° N 23:14:18 30° NE 23:14:18 30° NE
Atlas Centaur 2 4.2 23:13:29 10° WSW 23:16:54 26° SW 23:16:54 26° SW
Cosmos 1553 Rocket 4.3 23:23:21 60° NNE 23:23:21 60° NNE 23:28:29 10° N
Cosmos 1844 Rocket 3.2 23:21:28 10° NNW 23:25:44 54° NNW 23:25:44 54° NNW
H-2A R/B 4.4 23:44:20 20° NW 23:44:20 20° NW 23:46:04 10° NW
Cosmos 2219 Rocket 3.3 23:45:20 38° NNE 23:45:20 38° NNE 23:48:42 10° NNE
S3M 4.5 23:51:34 56° NNW 23:51:34 56° NNW 23:56:35 10° N
